Tracking 22440 objects as of 27-Feb-2021
HD Live streaming from Space Station
objects crossing your sky now

INTELSAT 804

Track INTELSAT 804 now!
INTELSAT 804 is classified as:


NORAD ID: 25110
Int'l Code: 1997-083A
Perigee: 35,764.2 km
Apogee: 35,831.4 km
Inclination: 11.2 °
Period: 1,436.3 minutes
Semi major axis: 42168 km
RCS: 10.0118 m2 (large)
Launch date: December 21, 1997
Source: International Telecommunications Satellite Organization (ITSO)
Launch site: FRENCH GUIANA (FRGUI)
aabbcc
Your satellite tracking list
Your tracking list is empty




NASA's NSSDC Master Catalog

Two Line Element Set (TLE):
1 25110U 97083A   21057.21097391 -.00000057  00000-0  00000-0 0  9996
2 25110  11.2073  30.7232 0007974 342.1741  27.5856  1.00257396 84920
Source of the keplerian elements: AFSPC